This is the latest recevied weather packets stored in our database for station/object SV9TNF-57. If no packets are shown the sender has not sent any weather packets the latest 10 day(s).
| Time | Temp. | Humidity | Pressure | Rain* | Wind** | Luminosity | Snow |
|---|---|---|---|---|---|---|---|
| 1788036120 | 23.89° C | 67% | 996.8 hPa | 0 mm | 1.34 m/s, 333° | - | - |
| 1788035822 | 23.89° C | 67% | 996.7 hPa | 0 mm | 0 m/s | - | - |
| 1788035520 | 23.89° C | 66% | 996.8 hPa | 0 mm | 0.89 m/s, 357° | - | - |
| 1788035220 | 23.89° C | 66% | 996.9 hPa | 0 mm | 1.79 m/s, 277° | - | - |
| 1788034920 | 23.33° C | 67% | 997.1 hPa | 0 mm | 0 m/s | - | - |
| 1788034619 | 23.33° C | 66% | 997 hPa | 0 mm | 2.68 m/s, 335° | - | - |
| 1788034319 | 23.89° C | 65% | 996.8 hPa | 0 mm | 2.24 m/s, 304° | - | - |
| 1788034019 | 23.89° C | 65% | 996.9 hPa | 0 mm | 3.58 m/s, 327° | - | - |
| 1788033719 | 23.89° C | 65% | 996.8 hPa | 0 mm | 0.45 m/s, 284° | - | - |
| 1788033419 | 23.89° C | 65% | 996.6 hPa | 0 mm | 0 m/s | - | - |
| 1788033119 | 23.89° C | 64% | 996.7 hPa | 0 mm | 3.13 m/s, 291° | - | - |
| 1788032819 | 24.44° C | 64% | 996.9 hPa | 0 mm | 0.89 m/s, 303° | - | - |
| 1788032519 | 24.44° C | 64% | 996.9 hPa | 0 mm | 0.89 m/s, 342° | - | - |
| 1788032219 | 24.44° C | 64% | 996.7 hPa | 0 mm | 0.89 m/s, 309° | - | - |
| 1788031919 | 24.44° C | 64% | 996.8 hPa | 0 mm | 0.45 m/s, 247° | - | - |
| 1788031619 | 24.44° C | 64% | 996.6 hPa | 0 mm | 4.02 m/s, 351° | - | - |
| 1788031318 | 24.44° C | 64% | 997.1 hPa | 0 mm | 4.92 m/s, 213° | - | - |
| 1788031018 | 24.44° C | 64% | 997 hPa | 0 mm | 0.89 m/s, 286° | - | - |
| 1788030719 | 24.44° C | 64% | 997 hPa | 0 mm | 1.34 m/s, 315° | - | - |
| 1788030418 | 24.44° C | 63% | 996.9 hPa | 0 mm | 4.92 m/s, 346° | - | - |
| 1788030118 | 24.44° C | 63% | 996.7 hPa | 0 mm | 10.73 m/s, 264° | - | - |
| 1788029818 | 24.44° C | 64% | 996.6 hPa | 0 mm | 0.45 m/s, 258° | - | - |
| 1788029518 | 24.44° C | 64% | 996.7 hPa | 0 mm | 3.58 m/s, 309° | - | - |
| 1788029218 | 24.44° C | 65% | 996.7 hPa | 0 mm | 1.34 m/s, 314° | - | - |
| 1788028918 | 24.44° C | 65% | 996.6 hPa | 0 mm | 5.36 m/s, 307° | - | - |
* Rain latest hour (hover to see other rain measurements)
** Current wind speed in m/s (hover to see current wind gust speed)